Kleine Brogel, Belgium

2:10 AM CEST on October 21, 2018 (GMT +0200)
Kleine-Brogel Air Base

Weather History for EBBL - April, 2018

Change the Weather History Date:

Monday, April 16, 2018

  Actual Average Record
Temperature  
Mean Temperature 57 °F -  
Max Temperature 64 °F 58 °F 78 °F (2007)
Min Temperature 46 °F 44 °F 26 °F (2008)
Degree Days  
Heating Degree Days 8    
Growing Degree Days 7 (Base 50)    
Moisture  
Dew Point 46 °F    
Average Humidity 71    
Maximum Humidity 100    
Minimum Humidity 37    
Precipitation  
Precipitation 0.00 in - - ()
Sea Level Pressure  
Sea Level Pressure 29.99 in    
Wind  
Wind Speed 4 mph ()    
Max Wind Speed 12 mph    
Max Gust Speed -    
Visibility 7.6 miles    
Events Rain    
Averages and records for this station are not official NWS values.
T = Trace of Precipitation, MM = Missing Value Source: Averaged Metar Reports

Daily Weather History Graph

Daily Weather History Graph

Search for Another Location

Airport or City:

Astronomy

Apr. 16, 2018 Rise Set
Actual Time 6:41 AM CEST 8:35 PM CEST
Civil Twilight 6:06 AM CEST 9:11 PM CEST
Nautical Twilight 5:22 AM CEST 9:54 PM CEST
Astronomical Twilight 4:33 AM CEST 10:44 PM CEST
Moon 7:21 AM CEST (4/16) 9:03 PM CEST (4/16)
Length of Visible Light 15h 04m
Length of Day
13h 54m
New Moon, 0% of the Moon is Illuminated
Apr 16
New Moon
Apr 22
First Quarter
Apr 30
Full
May 8
Last Quarter
May 15
New

Hourly Weather History & Observations

Time (CEST) Temp. Dew Point Humidity Pressure Visibility Wind Dir Wind Speed Gust Speed Precip Events Conditions
12:00 AM 56 °F 47 °F 64% 29.86 in 12 mi 2.2 mph - -   Scattered Clouds
12:25 AM 55.4 °F 46.4 °F 72% 29.86 in 6.2 mi Variable 1.2 mph - N/A   Overcast
12:55 AM 53.6 °F 46.4 °F 77% 29.86 in 6.2 mi Variable 1.2 mph - N/A   Mostly Cloudy
1:00 AM 54 °F 47 °F 70% 29.87 in 12 mi 2.2 mph - -   Scattered Clouds
1:25 AM 53.6 °F 46.4 °F 77% 29.86 in 6.2 mi Variable 2.3 mph - N/A   Mostly Cloudy
1:55 AM 55.4 °F 48.2 °F 77% 29.86 in 6.2 mi SW 5.8 mph - N/A   Overcast
2:00 AM 56 °F 47 °F 65% 29.88 in 12 mi SW 6.7 mph - -   Clear
2:14 AM 55.4 °F 48.2 °F 77% 29.89 in 3.7 mi WSW 11.5 mph - N/A Rain Rain
2:25 AM 53.6 °F 48.2 °F 82% 29.89 in 6.2 mi West 6.9 mph - N/A   Overcast
2:55 AM 53.6 °F 50.0 °F 88% 29.86 in 6.2 mi West 3.5 mph - N/A   Overcast
3:00 AM 53 °F 50 °F 84% 29.88 in 12 mi 2.2 mph - -   Clear
3:25 AM 53.6 °F 50.0 °F 88% 29.89 in 6.2 mi Variable 2.3 mph - N/A   Mostly Cloudy
3:55 AM 51.8 °F 50.0 °F 94% 29.89 in 6.2 mi Variable 2.3 mph - N/A   Mostly Cloudy
4:00 AM 52 °F 50 °F 89% 29.89 in 9 mi 2.2 mph - -   Scattered Clouds
4:25 AM 51.8 °F 50.0 °F 94% 29.89 in 5.6 mi Variable 1.2 mph - N/A   Overcast
4:34 AM 51.8 °F 50.0 °F 94% 29.89 in 4.3 mi Variable 1.2 mph - N/A   Mostly Cloudy
4:54 AM 51.8 °F 50.0 °F 94% 29.89 in 6.2 mi Variable 2.3 mph - N/A   Mostly Cloudy
5:00 AM 51 °F 49 °F 91% 29.91 in 7 mi 2.2 mph - -   Clear
5:25 AM 50.0 °F 50.0 °F 100% 29.89 in 6.2 mi Variable 2.3 mph - N/A   Mostly Cloudy
5:33 AM 51.8 °F 50.0 °F 94% 29.89 in 6.2 mi Variable 2.3 mph - N/A   Mostly Cloudy
5:42 AM 51.8 °F 50.0 °F 94% 29.89 in 3.1 mi Variable 2.3 mph - N/A   Mostly Cloudy
5:55 AM 51.8 °F 50.0 °F 94% 29.89 in 6.2 mi Variable 1.2 mph - N/A   Mostly Cloudy
6:00 AM 51 °F 49 °F 92% 29.91 in 6 mi 2.2 mph - -   Mostly Cloudy
6:25 AM 51.8 °F 48.2 °F 88% 29.92 in 6.2 mi Variable 2.3 mph - N/A   Mostly Cloudy
6:46 AM 51.8 °F 48.2 °F 88% 29.92 in 6.2 mi SW 3.5 mph - N/A   Mostly Cloudy
6:55 AM 51.8 °F 48.2 °F 88% 29.92 in 6.2 mi WSW 5.8 mph - N/A   Scattered Clouds
7:00 AM 51 °F 48 °F 87% 29.92 in 6 mi WSW 4.5 mph - -   Partly Cloudy
7:25 AM 51.8 °F 48.2 °F 88% 29.92 in 6.2 mi WSW 5.8 mph - N/A   Scattered Clouds
7:55 AM 51.8 °F 48.2 °F 88% 29.95 in 6.2 mi West 6.9 mph - N/A   Scattered Clouds
8:00 AM 51 °F 48 °F 87% 29.95 in 9 mi West 6.7 mph - -   Scattered Clouds
8:25 AM 51.8 °F 48.2 °F 88% 29.95 in 6.2 mi West 8.1 mph - N/A   Scattered Clouds
8:55 AM 53.6 °F 48.2 °F 82% 29.95 in 6.2 mi WSW 6.9 mph - N/A   Scattered Clouds
9:00 AM 53 °F 49 °F 81% 29.97 in 12 mi WSW 6.7 mph - -   Scattered Clouds
9:25 AM 55.4 °F 48.2 °F 77% 29.98 in 6.2 mi West 6.9 mph - N/A   Scattered Clouds
9:55 AM 55.4 °F 48.2 °F 77% 29.98 in 6.2 mi West 6.9 mph - N/A   Scattered Clouds
10:00 AM 56 °F 48 °F 66% 29.99 in 12 mi West 6.7 mph - -   Scattered Clouds
10:25 AM 55.4 °F 46.4 °F 72% 29.98 in 6.2 mi West 5.8 mph - N/A   Mostly Cloudy
10:55 AM 57.2 °F 46.4 °F 67% 30.01 in 6.2 mi West 4.6 mph - N/A   Mostly Cloudy
11:00 AM 57 °F 46 °F 56% 30.01 in 12 mi West 4.5 mph - -   Scattered Clouds
11:25 AM 59.0 °F 46.4 °F 63% 30.01 in 6.2 mi West 6.9 mph - N/A   Mostly Cloudy
11:55 AM 59.0 °F 44.6 °F 59% 30.01 in 6.2 mi WSW 8.1 mph - N/A   Mostly Cloudy
12:00 PM 60 °F 45 °F 47% 30.02 in 12 mi WSW 6.7 mph - -   Partly Cloudy
12:55 PM 62.6 °F 44.6 °F 52% 30.01 in 6.2 mi SW 6.9 mph - N/A   Scattered Clouds
1:00 PM 62 °F 44 °F 40% 30.02 in 12 mi SW 6.7 mph - -   Partly Cloudy
1:25 PM 59.0 °F 44.6 °F 59% 30.01 in 6.2 mi West 8.1 mph - N/A   Scattered Clouds
1:55 PM 59.0 °F 44.6 °F 59% 30.01 in 6.2 mi WSW 6.9 mph - N/A   Scattered Clouds
2:00 PM 60 °F 44 °F 45% 30.03 in 12 mi WSW 6.7 mph - -   Partly Cloudy
2:25 PM 60.8 °F 44.6 °F 55% 30.01 in 6.2 mi WSW 5.8 mph - N/A   Mostly Cloudy
2:55 PM 62.6 °F 44.6 °F 52% 30.04 in 6.2 mi WSW 9.2 mph - N/A   Mostly Cloudy
3:00 PM 62 °F 45 °F 42% 30.04 in 12 mi WSW 8.9 mph - -   Partly Cloudy
3:25 PM 60.8 °F 42.8 °F 52% 30.04 in 6.2 mi WSW 8.1 mph - N/A   Mostly Cloudy
3:55 PM 60.8 °F 42.8 °F 52% 30.04 in 6.2 mi WSW 6.9 mph - N/A   Scattered Clouds
4:00 PM 62 °F 43 °F 38% 30.04 in 12 mi WSW 6.7 mph - -   Partly Cloudy
4:25 PM 60.8 °F 44.6 °F 55% 30.04 in 6.2 mi West 5.8 mph - N/A   Scattered Clouds
4:55 PM 60.8 °F 42.8 °F 52% 30.04 in 6.2 mi WSW 6.9 mph - N/A   Scattered Clouds
5:00 PM 61 °F 43 °F 40% 30.05 in 12 mi WSW 6.7 mph - -   Partly Cloudy
5:55 PM 62.6 °F 42.8 °F 48% 30.04 in 6.2 mi West 5.8 mph - N/A   Scattered Clouds
6:00 PM 63 °F 43 °F 37% 30.05 in 12 mi West 4.5 mph - -   Partly Cloudy
6:25 PM 60.8 °F 42.8 °F 52% 30.04 in 6.2 mi West 6.9 mph - N/A   Scattered Clouds
6:55 PM 60.8 °F 42.8 °F 52% 30.06 in 6.2 mi WNW 5.8 mph - N/A   Scattered Clouds
7:00 PM 61 °F 43 °F 40% 30.06 in 12 mi WNW 4.5 mph - -   Partly Cloudy
7:25 PM 59.0 °F 42.8 °F 55% 30.06 in 6.2 mi West 3.5 mph - N/A   Partly Cloudy
7:55 PM 57.2 °F 44.6 °F 63% 30.06 in 6.2 mi Variable 1.2 mph - N/A   Partly Cloudy
8:00 PM 58 °F 44 °F 50% 30.08 in 12 mi 2.2 mph - -   Scattered Clouds
8:25 PM 57.2 °F 42.8 °F 59% 30.09 in 6.2 mi Variable 2.3 mph - N/A   Partly Cloudy
8:55 PM 53.6 °F 44.6 °F 72% 30.09 in 6.2 mi Variable 2.3 mph - N/A   Partly Cloudy
9:00 PM 54 °F 44 °F 59% 30.12 in 12 mi 2.2 mph - -   Scattered Clouds
9:25 PM 53.6 °F 44.6 °F 72% 30.12 in 6.2 mi NNW 4.6 mph - N/A   Partly Cloudy
9:55 PM 51.8 °F 44.6 °F 76% 30.12 in 6.2 mi North 3.5 mph - N/A   Partly Cloudy
10:00 PM 52 °F 44 °F 68% 30.14 in 12 mi 4.5 mph - -   Scattered Clouds
10:25 PM 51.8 °F 44.6 °F 76% 30.15 in 6.2 mi North 3.5 mph - N/A   Partly Cloudy
10:55 PM 50.0 °F 44.6 °F 82% 30.15 in 6.2 mi Variable 2.3 mph - N/A   Partly Cloudy
11:00 PM 51 °F 44 °F 70% 30.16 in 12 mi 2.2 mph - -   Scattered Clouds
11:25 PM 50.0 °F 42.8 °F 76% 30.15 in 6.2 mi Variable 1.2 mph - N/A   Partly Cloudy
11:33 PM 50.0 °F 42.8 °F 76% 30.15 in 6.2 mi Variable 1.2 mph - N/A   Partly Cloudy
11:55 PM 46.4 °F 42.8 °F 87% 30.15 in 6.2 mi Calm Calm - N/A   Unknown